Location: Huppendorf
(49.9333°N, 11.1500°E)
Time: 10:32:11
(UTC+00:00)

STARLINK-1031 - Pass Details

Date: 27 February 2020
Orbit: 553 x 555 km, 53.0° (Epoch: 30 March)

Event Time Altitude Azimuth Distance (km) Brightness Sun altitude
Rises 18:36:09 0° 266° (W) 2,730 8.8 -17.3°
Reaches altitude 10° 18:38:25 10° 270° (W) 1,837 7.6 -17.6°
Maximum altitude 18:42:32 59° 351° (N) 644 4.0 -18.3°
Enters shadow 18:44:04 35° 55° (NE) 908 4.3 -18.5°
